www.pogodaiklimat.ru

Погода и климат >> Архив погоды >> Нигер >> Магарьа


ПОГОДА в Магарьа

  • Прогноз погоды в Магарьа
  • Монитор погоды в Магарьа

АРХИВ ПОГОДЫ в Магарьа

Время (UTC), дата Ветер
(напр.,м/с)
 
Видим.   Явления Облачность Т
(С)
Тd
(С)
f
(%)
Тe
(С)
Тes
(С)
Комфортность P
(гПа)
Po
(гПа)
Тmin
(С)
Tmax
(С)
R
(мм)
R24
(мм)
S
(см)
21 11.09 Ю 8 15 км 9/0
[Cs]
+29.0 +21.8 65 +37 +37 очень
душно
1011.8 967.6
00 12.09 ЮЗ 8 15 км 9/0
[Ac trans Cs]
+26.2 +21.5 75 +33 +33 очень
душно
1011.7 967.6
03 12.09 ЮЗ 4 15 км 9/0
[Ac trans Ci sp]
+25.4 +21.6 80 +33 +33 очень
душно
1011.0 966.9
06 12.09 штиль 0 15 км 9/0
[Ac trans Cs]
+24.5 +22.3 88 +32 +32 очень
душно
1011.8 967.4 +24.0
09 12.09 ЮЗ 2 15 км 9/0
[Ac trans Cs]
+30.6 +22.8 63 +40 +51 опасность
солнечного
удара
1012.8 968.5
12 12.09 ЮЗ 2 15 км 9/0
[Ac trans Cs]
+35.3 +22.8 48 +45 +59 опасность
перегрева
1011.3 967.2
15 12.09 ЮВ 4 15 км 9/4 1000 м
[Cb cap Ac lent Ci sp]
+36.2 +21.3 42 +44 +45 опасность
перегрева
1008.8 964.9
18 12.09 З 2 15 км гроза без осадков 10/1 1200 м
[Cb cap Ac As]
+25.8 +23.5 87 +35 +35 очень
душно
1011.7 966.8 +36.5 8
21 12.09 штиль 0 15 км {гроза} 10/0
[Ac As]
+25.6 +24.0 91 +35 +35 очень
душно
1011.7 967.2
00 13.09 З 2 15 км {гроза} 10/0
[Ac As]
+25.5 +23.9 91 +35 +35 очень
душно
1011.4 967.3
03 13.09 З 2 15 км 9/0
[Ac lent Cs]
+25.4 +23.8 91 +35 +35 очень
душно
1011.1 967.0
06 13.09 З 2 15 км 9/0
[Ac lent Cs]
+24.7 +23.7 94 +34 +34 очень
душно
1012.8 967.9 +24.5 8
09 13.09 З 2 20 км 9/0
[Cs]
+29.4 +23.1 69 +39 +51 опасность
солнечного
удара
1013.4 968.8
12 13.09 С 2 20 км 9/1 900 м
[Sc Cs]
+34.0 +23.7 55 +45 +61 опасность
перегрева
1011.1 966.9
15 13.09 СВ 2 20 км 9/3 1200 м
[Cu hum Cs]
+36.0 +22.6 46 +45 +50 опасность
перегрева
1009.2 965.2
18 13.09 штиль 0 20 км 9/1 1200 м
[Cb cap Cs]
+32.5 +24.2 62 +45 +45 опасность
перегрева
1009.1 964.8 +36.7
21 13.09 штиль 0 15 км 9/0
[Cs]
+29.0 +26.0 84 +44 +44 опасность
перегрева
1010.6 966.3
00 14.09 ЮЗ 4 15 км 9/0
[Cs]
+28.2 +24.6 81 +40 +40 очень
душно
1010.3 966.3
03 14.09 ЮЗ 6 10 км 9/0
[Cs]
+26.4 +22.1 77 +34 +34 очень
душно
1010.2 966.2
06 14.09 ЮВ 6 12 км 9/0
[Ac und Cs]
+25.8 +22.5 82 +34 +34 очень
душно
1011.5 967.1 +25.5
09 14.09 ЮЗ 8 15 км 9/0
[Cs]
+29.0 +21.5 64 +37 +39 очень
душно
1012.7 968.3
12 14.09 ЮЗ 6 15 км 9/4 900 м
[Sc Cs]
+31.5 +23.0 61 +42 +46 опасность
перегрева
1012.1 967.9
15 14.09 З 6 15 км 9/1 900 м
[Cu hum Ac trans Cs]
+33.5 +22.9 54 +44 +45 опасность
перегрева
1007.3 963.3
18 14.09 З 4 15 км гроза без осадков 9/1 1200 м
[Cb cap Ac lent Cs]
+31.0 +24.0 66 +43 +43 опасность
перегрева
1008.8 964.5 +34.0
21 14.09 СВ 4 15 км гроза без осадков 10/1 1200 м
[Cb cap Ac As]
+22.8 +20.3 86 +30 +30 очень
душно
1013.2 968.3
00 15.09 ЮЗ 4 15 км 10/0
[Ac As]
+23.6 +21.9 90 +30 +30 очень
душно
1011.1 966.6 2
03 15.09 ЮЗ 4 15 км 9/0
[Ac As Ci sp]
+23.6 +22.0 91 +30 +30 очень
душно
1009.9 965.6
06 15.09 ЮЗ 2 15 км 9/0
[Ac As Ci sp]
+23.5 +22.2 92 +30 +31 очень
душно
1011.9 967.3 +22.5 2
09 15.09 ЮВ 2 15 км 9/0
[Ac trans Ci sp]
+27.0 +22.2 75 +35 +42 очень
душно
1013.1 968.1
12 15.09 ЮЗ 4 15 км 9/3 900 м
[Sc Ac trans Ci sp]
+31.5 +22.7 60 +41 +47 опасность
перегрева
1011.3 966.8
15 15.09 СВ 2 15 км 9/4 900 м
[Sc Ci sp]
+32.0 +22.0 56 +41 +45 опасность
перегрева
1009.7 965.3
18 15.09 ЮЗ 2 15 км зарница 8/1 1200 м
[Cb cap Ac lent Ci sp]
+30.2 +24.9 73 +43 +43 опасность
перегрева
1009.8 965.2 +33.0
21 15.09 штиль 0 15 км 9/0
[Cs]
+27.8 +24.6 83 +39 +39 очень
душно
1011.6 967.0
00 16.09 штиль 0 15 км 9/0
[Cs]
+26.3 +24.5 90 +37 +37 очень
душно
1010.9 966.6
03 16.09 З 2 15 км 9/0
[Ac lent Cs]
+25.0 +23.0 89 +33 +33 очень
душно
1010.9 966.5
06 16.09 З 2 15 км 9/0
[Ac lent Cs]
+24.4 +23.1 92 +32 +33 очень
душно
1011.2 966.7 +24.0
09 16.09 З 6 20 км 9/1 1200 м
[Cb calv Ac und Cs]
+29.5 +23.1 69 +40 +42 очень
душно
1011.2 967.8
12 16.09 ЮВ 10 20 км гроза без осадков 10/1 1200 м
[Cb cap Ac As]
+25.0 +20.5 76 +31 +31 очень
душно
1012.8 967.9 1
15 16.09 ЮВ 2 20 км {гроза} 10/1 900 м
[Sc Ac As]
+29.2 +19.4 56 +35 +37 очень
душно
1010.8 966.2
18 16.09 З 2 20 км {гроза} 9/0
[Ac lent Cs]
+26.3 +21.9 77 +34 +34 очень
душно
1010.3 965.5 +30.5 1
21 16.09 З 2 15 км 9/0
[Ac As]
+24.4 +22.1 87 +32 +32 очень
душно
1010.5 965.9
00 17.09 ЮЗ 2 15 км 9/0
[Ac cast Ci sp]
+24.0 +22.3 90 +31 +31 очень
душно
1011.0 966.0
03 17.09 З 2 15 км 9/0
[Ac As]
+22.8 +22.7 99 +31 +31 очень
душно
1010.7 966.0
06 17.09 З 2 15 км 9/0
[Ac cast Ci sp]
+23.8 +22.7 94 +31 +32 очень
душно
1011.3 966.4 +23.5 1
09 17.09 ЮЗ 4 15 км 9/0
[Ac trans Cs]
+29.0 +21.1 62 +36 +44 очень
душно
1012.4 967.7
12 17.09 С 2 15 км 9/8 1000 м
[Cu med, cong Ac cast]
+32.6 +20.7 50 +40 +50 очень
душно
1010.8 966.4
15 17.09 В 2 15 км 9/9 1000 м
[]
+34.3 +20.4 44 +41 +41 опасность
перегрева
1007.6 963.4
18 17.09 штиль 0 15 км 9/0
[Cs]
+31.2 +23.6 64 +42 +42 опасность
перегрева
1008.1 963.7 +35.0
21 17.09 З 2 10 км 9/0
[Cs]
+27.8 +23.2 76 +37 +37 очень
душно
1010.2 965.9
00 18.09 ЮЗ 2 15 км 9/0
[Cs]
+26.5 +23.8 85 +36 +36 очень
душно
1009.8 965.6
03 18.09 З 2 15 км 9/0
[Cs]
+25.4 +24.0 92 +35 +35 очень
душно
1009.5 965.4
06 18.09 З 2 15 км 9/0
[Ac cast Ci sp]
+25.1 +23.2 89 +34 +34 очень
душно
1010.6 966.1 +24.6
09 18.09 ЮЗ 2 15 км 9/0
[Ac trans Cs]
+31.8 +22.6 58 +41 +51 опасность
перегрева
1011.9 967.7
12 18.09 З 4 15 км 9/3 900 м
[Cu med, cong Ac trans Ci sp]
+35.6 +21.8 45 +44 +49 опасность
перегрева
1010.4 966.4
15 18.09 ЮЗ 2 15 км в посл. час гроза 9/3 1000 м
[Cu med, cong Cs]
+35.5 +22.8 48 +45 +49 опасность
перегрева
1008.2 964.3

 

Местоположение метеостанции Магарьа (Нигер): широта 12.98 долгота 8.93 высота над уровнем моря 403 м.

В архиве по умолчанию представлена погода в Магарьа за последнюю неделю. Архивные данные за месяц целиком и за предыдущие месяцы, начиная с января 2011 года, Вы можете получить, выбрав интересующий диапазон дат из раскрывающегося списка и нажав кнопку "Ввод!".


*Определитесь, кто Вы:
робот инопланетянин человек

Внимание! Время в таблицах - всемирное. Для получения местного времени необходимо прибавить поправку, которая равна 1 ч.

Смотрите также архив погоды в соседних городах и на ближайших метеорологических станциях:

Погода в Зиндере (Нигер) (89 км)
Погода в Кано (Нигерия) (112 км)
Погода в Кацине (Нигерия) (136 км)
Погода в Гуре (Нигер) (185 км)
Погода в Маради (Нигер) (208 км)
Погода в Майне-Сороа (Нигер) (332 км)
Погода в Джосе (Нигерия) (346 км)
Погода в Гомбе (Нигерия) (386 км)
Погода в Вирнин-Конни (Нигер) (408 км)
Погода в Диффе (Нигер) (420 км)

Пояснения к столбцам:

Ветер - указаны скорость ветра в м/с - средняя за 10 мин, порывы в срок и между сроками (в фигурных скобках) и направление, откуда дует ветер: С - северный, СВ - северо-восточный, В - восточный, ЮВ - юго-восточный, Ю - южный, ЮЗ - юго-западный, З - западный, СЗ - северо-западный.
Видимость - горизонтальная дальность видимости в метрах или километрах. При видимости от 1 до 10 км при отсутствии осадков обычно наблюдается дымка, при ухудшении видимости до 1 км и менее - туман. В сухую погоду видимость может ухудшаться дымом, пылью или мглою.
Явления - указаны атмосферные явления, наблюдавшиеся в срок или в последний час перед сроком; фигурными скобками обозначены явления, наблюдавшиеся между сроками (за 1-3 часа до срока); квадратными скобками обозначены град или гололедные отложения с указанием их диаметра в мм.
Облачность - указаны через наклонную черту общая и нижняя облачность в баллах и высота нижней границы облаков в метрах; квадратными скобками обозначены формы облаков: Ci - перистые, Cs - перисто-слоистые, Cc - перисто-кучевые, Ac - высококучевые, As - высокослоистые, Sc - слоисто-кучевые, Ns - слоисто-дождевые, Cu - кучевые, Cb - кучево-дождевые. Подробнее классификацию облаков см. в Атласе облаков (PDF).
T - Температура воздуха - температура, измеренная на высоте 2 м над землей.
Td - Температура точки росы - температура, при понижении до которой содержащийся в воздухе водяной пар достигнет насыщения.
f - Относительная влажность воздуха - влажноcть воздуха, измеренная на высоте 2 м над землей.
Te - Эффективная температура - температура, которую ощущает одетый по сезону человек в тени. Характеристика душности погоды. При расчете учитывается влияние влажности воздуха и скорости ветра на теплоощущения человека.
Tes - Эффективная температура на солнце - температура, которую ощущает человек, с поправкой на солнечный нагрев. Характеристика знойности погоды. Зависит от высоты солнца над горизонтом, облачности и скорости ветра. Ночью, в пасмурную погоду, а также при ветре 12 м/с и более поправка равна нулю.
P - Атмосферное давление - приведенное к уровню моря атмосферное давление.
Po - Атмосферное давление - измеренное на уровне метеостанции атмосферное давление.
Tmin - Минимальная температура - минимум температуры воздуха на высоте 2 м над землей.
Tmax - Максимальная температура - максимум температуры воздуха на высоте 2 м над землей.
R - Количество осадков - Количество выпавших осадков за период времени, мм. При наведении курсора мыши на число - период времени, за который выпало указанное количество осадков.
R24 - Количество осадков - Количество выпавших осадков за 24 часа, мм.
S - Снежный покров - Высота снежного покрова, см. При наведении курсора мыши на число - состояние снежного покрова и степень покрытия местности в баллах.